Weather in Cortina d'Ampezzo

Italy     46°32′06″N   12°08′17″E
temp.,
°C
wind,
m/s
gust,
m/s
humid.,
%
clouds,
%
prec.,
mm/h
press.,
hPa
HPBL,
m
19 september, sun
sun1923:00+9ese009471 0.1 101521
02:00+9sse119276 0.3 101419
05:00+8s009851 0.2 101425
08:00+9s119671 0.3 1014144
11:00+11s228694 0.2 1013505
14:00+12sse2285100 1.2 1011798
17:00+10sse2398100 2.1 1010330
20:00+9ssw1299100 6.6 1010138
20 september, mon
mon2023:00+7n2195100 3.2 101232
02:00+5nnw3497100 3.4 1013130
05:00+5nnw3595100 0.0 1014274
08:00+5nnw349177 0.0 1015256
11:00+9n226836 0.0 1015848
14:00+10n115999 0.1 10151163
17:00+10ne116391 0.1 1016675
20:00+7n118098 0.4 101818
21 september, tue
tue2123:00+6nnw228249 0.1 102135
02:00+3nnw22915 0.1 102335
05:00+2nnw23903 0.0 102445
08:00+3nnw23840 0.0 102581
11:00+12ene01464 0.0 10221021
14:00+15s12385 0.0 10211802
17:00+13s225520 0.0 10211053
20:00+7s119462 0.1 102537
22 september, wed
wed2223:00+7n119162 0.0 102626
02:00+4nnw22906 0.0 102634
05:00+3nnw339010 0.0 102549
08:00+4nnw2383100 0.0 102471
11:00+12e114795 0.0 1022790
14:00+15sse1235100 0.0 10191501
17:00+12s226299 0.0 1018761
20:00+7s1297100 0.0 1021171
23 september, thu
thu2323:00+7s1193100 0.0 1021126
02:00+6s119667 0.1 1020139
05:00+5wnw119636 0.0 101956
08:00+5nw12905 0.0 101962
11:00+13s11555 0.0 1017840
14:00+15s325314 0.0 10151231
17:00+12s327477 0.0 1015574
20:00+8s119387 0.0 1017103